Find NNS 30060

NORAD ID: 1864 Int'l Des: 1965-109 Owner: BUWEPS Country: US operational
LEOPOLAR

Live Position

Loading 3D Globe...

About NNS 30060

Description loading...

Upcoming Passes

Passes for default location (London). Set your location on the main map for personalized predictions.

Altitude History

Loading altitude history...

Two-Line Element Set

1 1864U 65109A 26106.82622626 .00000071 00000-0 53988-4 0 9994
2 1864 89.0692 241.3554 0110827 41.6034 319.3499 13.79045098 27649
Epoch: Apr 16, 2026 • Age: 17 hours

Current Status

Altitude 1062.5 km
Velocity 7.28 km/s
Sub-Earth Point -36.64°S, 28.16°E
Type other

Most Searched